Regional Weather Roundup
Issued by NWS Jackson, KY

Home | Current Version | Previous Version | Text Only | Print | Product List | Glossary Off
Versions: 1 2 3 4 5 6 7 8 9 10 11 12 13 14 15 16 17 18 19 20 21 22 23 24 25 26 27

000
ASUS43 KJKL 271610
RWRJKL

EAST KENTUCKY HOURLY WEATHER ROUNDUP
NATIONAL WEATHER SERVICE JACKSON KY
1200 PM EDT FRI MAY 27 2016

NOTE: "FAIR" INDICATES FEW OR NO CLOUDS BELOW 12,000 FEET WITH
NO SIGNIFICANT WEATHER AND/OR OBSTRUCTIONS TO VISIBILITY.

* THESE REPORTS ARE NOT UNDER NWS QUALITY CONTROL AND MAY NOT
  REPORT WEATHER SUCH AS PRECIPITATION AND FOG.

KYZ079-080-083-085-087-088-110-112-115-119-120-271700
...EASTERN KENTUCKY...

CITY           SKY/WX    TMP DP  RH WIND       PRES   REMARKS
JACKSON        SUNNY     82  66  58 VRB3      30.11S
LONDON         SUNNY     82  62  50 SW12      30.11R
SOMERSET*      SUNNY     79  64  61 SE3       30.11S
MONTICELLO*    MOSUNNY   82  67  60 VRB7      30.11R
WILLIAMSBURG*  MOSUNNY   79  64  61 SW6       30.12R
MIDDLESBORO*   SUNNY     80  66  62 S8        30.12F
HARLAN APT*      N/A     81  63  54 CALM      30.13F
BLACK MTN*       N/A     72  63  73 S6          N/A
PIKE CO APT*     N/A     80  67  64 CALM      30.12S
BIG SANDY APT* SUNNY     82  68  62 CALM      30.11S
MOREHEAD APT*  SUNNY     81  66  61 VRB6      30.10S
ASHLAND*       SUNNY     79  70  73 CALM      30.05S
$$

KYZ035-036-041-042-044-050-067-078-099-271700
...CENTRAL KENTUCKY...

CITY           SKY/WX    TMP DP  RH WIND       PRES   REMARKS
MT STERLING*   SUNNY     81  68  65 W7        30.10S
FLEMING/MASON* SUNNY    N/A N/A N/A S7        30.08S
DANVILLE*      SUNNY     81  64  57 SW10      30.10R
RICHMOND*      SUNNY     81  64  57 SW9       30.09R
LEXINGTON      SUNNY     81  67  62 SW10      30.08R
FRANKFORT      PTSUNNY   82  66  58 SW9       30.05S
LOUISVILLE     MOSUNNY   81  66  60 S7        30.04S
LEBANON*         N/A     81  66  61 S12       30.08R
GLASGOW*       MOSUNNY   80  66  61 SW9       30.07R
BOWLING GREEN  SUNNY     81  67  62 S10       30.05S
$$

KYZ091>093-OHZ055-061-077-WVZ005-015-034-035-042-271700
...SOUTHERN OHIO/WEST VIRGINIA...

CITY           SKY/WX    TMP DP  RH WIND       PRES   REMARKS
COVINGTON      PTSUNNY   81  66  60 S6        30.05S
COLUMBUS       MOSUNNY   78  63  59 SW8       30.04S
DAYTON         MOSUNNY   79  63  57 CALM      30.04S
WILMINGTON     PTSUNNY   80  66  62 S8        30.05R
HUNTINGTON       N/A     80  68  66 VRB5      30.08R
CHARLESTON       N/A     83  62  49 W6        30.09F
PINEVILLE*       N/A     82  57  41 MISG      30.19F
BECKLEY        PTSUNNY   77  57  50 NW6       30.18S
BLUEFIELD        N/A     77  58  51 MISG      30.21S
LOGAN CO APT*  CLOUDY    81  64  57 SW3       30.13R
$$

VAZ002-007-008-TNZ017-027-036-066-071-271700
...SOUTHWEST VIRGINIA/EAST TENNESSEE...

CITY           SKY/WX    TMP DP  RH WIND       PRES   REMARKS
WISE*          PTSUNNY   77  55  47 CALM      30.21R
JONESVILLE*      N/A     81  64  57 CALM      30.16S
ABINGDON*      PTSUNNY   81  61  50 CALM      30.17S
BRISTOL        MOSUNNY   81  63  54 S3        30.14F
SEVIERVILLE*   SUNNY     79  64  61 SW3       30.11S
KNOXVILLE      MOSUNNY   82  65  56 W6        30.11S
OAK RIDGE      PTSUNNY   81  64  56 MISG      30.12S
CROSSVILLE     MOSUNNY   78  64  61 VRB5      30.15R
NASHVILLE      PTSUNNY   84  62  47 S12       30.05S
$$

...KEY TO REMARKS...
VSB - VISIBILITY IN MILES
WCI - WIND CHILL INDEX
HX  - HEAT INDEX

$$




USA.gov is the U.S. government's official web portal to all federal, state and local government web resources and services.